Weather in Yanshikhovo-Chelly

Russia / Chuvash Republic     55°44′48″N   47°17′37″E
temp.,
°C
wind,
m/s
gust,
m/s
humid.,
%
clouds,
%
prec.,
mm/h
press.,
hPa
HPBL,
m
14 may, fri
fri1400:00+16s41487100 2.3 1020322
03:00+14se3888100 3.1 1020135
06:00+16se378576 0.1 1020212
09:00+20sse5763100 0.1 1019526
12:00+22s5757100 0.1 1019734
15:00+24ssw57585 0.1 10181232
18:00+23sw36705 0.0 1018175
21:00+18ssw2282100 0.0 101811
15 may, sat
sat1500:00+17sse228594 0.0 101815
03:00+17sse3489100 0.0 101752
06:00+18sse398099 0.0 1017212
09:00+23s5115399 0.0 1017584
12:00+27ssw6124390 0.0 10171230
15:00+27ssw6124233 0.0 10161526
18:00+23s496288 0.0 1015212
21:00+18s48655 0.0 1016117
16 may, sun
sun1600:00+16s346863 0.0 101552
03:00+15sse336829 0.0 101645
06:00+17s396946 0.0 1016237
09:00+22ssw475681 0.0 1016486
12:00+25sw584898 0.0 10161071
15:00+26sw59475 0.0 10151280
18:00+23wsw366648 0.0 1015154
21:00+18wnw228873 0.0 101618
17 may, mon
mon1700:00+16w118946 0.0 101711
03:00+16nnw009099 0.0 101711
06:00+18sse118498 0.0 101874
09:00+23se016430 0.0 1018459
12:00+26s234719 0.0 10171111
15:00+28s253925 0.0 10161634
18:00+25wnw23635 0.0 101655
21:00+20se22695 0.0 101713
18 may, tue
tue1800:00+17sse33716 0.0 101728
03:00+16sse227380 0.0 101717
06:00+19sse24675 0.0 1017120
09:00+25sse35495 0.0 1016445
12:00+28sse573366 0.0 10162204
15:00+29sse483717 0.0 10153004
18:00+24se4860100 0.0 1015151
21:00+20sse346470 0.0 101549